Vorticity
6 10 5 8 8 18 16 15 10 9 12 12 10 7 8 9 11 9 13 20 36 13
8 3 13 15 8 8 13 12 13 12 15 15 14 16 15 12 5 10 13 26 24 17
27 25 6 4 11 12 15 12 14 16 16 18 21 26 17 9 13 10 7 19 24 18
28 17 13 23 14 13 13 13 13 12 11 10 7 11 22 17 9 8 7 6 18 22
28 19 9 10 12 12 11 10 7 11 10 13 6 16 7 7 19 16 18 8 10 18
6 26 18 9 10 9 8 5 5 7 6 10 8 10 6 7 5 -0 -5 26 15 12
8 9 13 21 21 16 13 11 11 10 9 8 6 7 9 9 5 3 6 4 4 18
6 5 5 7 10 15 21 23 24 24 26 26 24 19 12 7 9 10 8 6 7 1
7 6 6 4 3 3 4 5 4 4 4 5 4 2 6 16 21 11 8 10 6 9
9 12 13 11 7 6 6 6 6 6 7 7 8 7 5 6 7 9 16 12 9 8
5 3 -7 11 13 16 15 15 17 14 8 8 7 7 6 7 8 10 13 15 13 12
4 1 4 3 -0 4 7 -7 7 17 10 7 4 11 19 24 20 22 34 25 19 15
4 8 8 5 8 2 2 2 -3 13 10 9 13 17 10 16 41 36 44 28 24 20
5 9 5 4 9 7 0 3 5 9 10 13 16 7 19 25 17 17 23 36 20 31
Height
5692 5687 5684 5681 5679 5676 5673 5671 5670 5668 5666 5664 5662 5659 5655 5651 5645 5639 5631 5620 5612 5611
5679 5676 5674 5671 5668 5666 5664 5661 5659 5657 5654 5651 5647 5645 5641 5637 5631 5625 5619 5609 5601 5599
5667 5666 5665 5662 5659 5656 5654 5652 5649 5646 5643 5640 5635 5631 5627 5623 5617 5612 5607 5600 5593 5590
5660 5658 5656 5654 5651 5648 5646 5643 5640 5636 5633 5629 5626 5622 5616 5611 5606 5599 5595 5590 5584 5581
5655 5651 5649 5647 5644 5640 5637 5634 5631 5628 5624 5619 5615 5611 5606 5601 5596 5590 5584 5579 5575 5571
5653 5648 5644 5640 5636 5633 5630 5626 5623 5619 5615 5610 5606 5600 5595 5591 5586 5581 5575 5569 5565 5562
5647 5642 5638 5633 5629 5625 5621 5618 5614 5610 5605 5601 5596 5591 5586 5581 5576 5571 5565 5561 5556 5551
5641 5637 5632 5627 5622 5618 5614 5610 5606 5601 5596 5590 5585 5580 5575 5571 5566 5561 5556 5551 5546 5541
5635 5630 5625 5621 5616 5612 5607 5602 5597 5592 5587 5581 5575 5570 5564 5559 5553 5548 5543 5539 5535 5531
5631 5626 5621 5616 5611 5605 5599 5594 5589 5583 5578 5572 5566 5560 5553 5547 5540 5535 5530 5525 5522 5518
5623 5619 5615 5610 5605 5600 5594 5588 5581 5575 5568 5561 5555 5547 5540 5533 5525 5519 5513 5508 5505 5502
5615 5610 5605 5601 5596 5590 5584 5578 5572 5564 5557 5550 5542 5534 5526 5518 5508 5499 5492 5487 5484 5483
5607 5602 5597 5591 5586 5580 5574 5567 5561 5553 5546 5539 5531 5523 5513 5503 5491 5483 5476 5471 5467 5465
5598 5594 5589 5583 5577 5571 5565 5558 5551 5543 5536 5528 5520 5511 5502 5492 5482 5472 5464 5459 5455 5452